This demonstration page uses our WeatherBlox Daily Observations layout. Learn more.

Left ArrowRight Arrow

Hourly Observations for October 5, 2018

Temp ( °F °C ) Dew Point ( °F °C ) Humidity (%) Winds ( mph kmh ) Pressure ( in mb ) Visibility ( mi km ) Precip ( " mm )
12:30 am 00:30 Mostly Clear 37 3 37 3 100 100 SSW 3 6 30.06 1018 7 11 0.00 0.00
12:57 am 00:57 Clear with Mist and Fog 38 3.3 37 2.8 97 97 SW 3 6 30.03 1017 6 10 0.00 0.00
1:57 am 01:57 Clear 38 3.3 37 2.8 97 97 SSW 5 7 30.00 1016 9 14 0.00 0.00
2:16 am 02:16 Partly Cloudy 37 3 36 2 93 93 SSW 3 6 30.03 1017 7 11 0.00 0.00
2:25 am 02:25 Mostly Cloudy 37 3 37 3 100 100 SW 5 7 30.03 1017 8 13 0.00 0.00
2:57 am 02:57 Cloudy 39 3.9 39 3.9 100 100 SW 8 13 29.99 1016 9 14 0.00 0.00
3:28 am 03:28 Cloudy with Mist and Fog 39 4 39 4 100 100 WSW 7 11 30.00 1016 2 3 0.00 0.00
3:40 am 03:40 Cloudy with Mist and Fog 39 4 39 4 100 100 WSW 8 13 30.00 1016 1 2 0.00 0.00
3:51 am 03:51 Cloudy with Mist and Fog 39 4 39 4 100 100 WSW 6 9 30.00 1016 2 2 0.00 0.00
3:57 am 03:57 Cloudy with Mist and Fog 40 4.4 39 3.9 97 97 WSW 7 11 29.96 1015 3 4 0.00 0.00
4:06 am 04:06 Cloudy with Mist and Fog 39 4 39 4 100 100 WSW 6 9 30.00 1016 4 6 0.00 0.00
4:51 am 04:51 Cloudy with Mist and Fog 39 4 39 4 100 100 WSW 7 11 30.00 1016 3 4 0.00 0.00
4:57 am 04:57 Cloudy with Mist and Fog 39 3.9 39 3.9 100 100 WSW 8 13 29.96 1015 3 4 0.00 0.00
5:06 am 05:06 Cloudy with Mist and Fog 39 4 39 4 100 100 WSW 9 15 30.00 1016 3 5 0.00 0.00
5:15 am 05:15 Cloudy with Mist and Fog 39 4 39 4 100 100 SW 9 15 29.94 1014 3 4 0.00 0.00
5:48 am 05:48 Cloudy with Mist and Fog 39 4 39 4 100 100 WSW 7 11 29.94 1014 5 8 0.00 0.00
5:57 am 05:57 Cloudy 39 3.9 39 3.9 100 100 SW 7 11 29.94 1014 8 13 0.00 0.00
6:57 am 06:57 Cloudy with Mist and Fog 39 3.9 38 3.3 96 96 SSW 12 19 29.94 1014 4 6 0.00 0.00
7:12 am 07:12 Cloudy with Mist and Fog 39 4 37 3 93 93 SW 9 15 29.94 1014 2 3 0.00 0.00
7:47 am 07:47 Cloudy with Mist and Fog 39 4 39 4 100 100 SW 9 15 29.94 1014 3 5 0.00 0.00
7:57 am 07:57 Cloudy with Mist and Fog 40 4.4 39 3.9 97 97 SW 9 15 29.93 1014 3 5 0.00 0.00
8:57 am 08:57 Cloudy 41 5 40 4.4 96 96 SW 10 17 29.93 1013 8 13 0.00 0.00
9:53 am 09:53 Cloudy 43 6 41 5 93 93 SW 8 13 29.94 1014 10 16 0.00 0.00
9:57 am 09:57 Cloudy 42 5.6 41 5 96 96 SW 7 11 29.93 1014 10 16 0.00 0.00
10:45 am 10:45 Cloudy 45 7 43 6 93 93 WSW 7 11 29.94 1014 10 16 0.00 0.00
10:57 am 10:57 Cloudy 45 7.2 42 5.6 90 90 SW 7 11 29.93 1013 10 16 0.00 0.00
11:57 am 11:57 Cloudy 48 8.9 44 6.7 86 86 S 7 11 29.89 1012 10 16 0.00 0.00
12:57 pm 12:57 Cloudy 49 9.4 46 7.8 90 90 SSW 12 19 29.88 1012 10 16 0.00 0.00
1:57 pm 13:57 Cloudy 50 10 47 8.3 89 89 SSW 3 6 29.86 1011 10 16 0.00 0.00
2:57 pm 14:57 Cloudy 51 10.6 47 8.3 86 86 NW 5 7 29.86 1011 10 16 0.00 0.00
3:57 pm 15:57 Cloudy 51 10.6 47 8.3 86 86 NW 6 9 29.87 1012 10 16 0.00 0.00
4:57 pm 16:57 Cloudy 52 11.1 48 8.9 86 86 VRB 5 7 29.89 1012 10 16 0.00 0.00
5:57 pm 17:57 Cloudy 53 11.7 49 9.4 86 86 Calm 29.93 1013 10 16 0.00 0.00
6:31 pm 18:31 Cloudy 54 12 48 9 82 82 N 6 9 29.91 1013 10 16 0.00 0.00
6:57 pm 18:57 Cloudy 53 11.7 49 9.4 86 86 N 8 13 29.96 1015 10 16 0.00 0.00
8:57 pm 20:57 Cloudy 46 7.8 40 4.4 79 79 N 23 37 30.01 1016 10 16 0.00 0.00
9:57 pm 21:57 Partly Cloudy 44 6.7 39 3.9 83 83 NNE 17 28 30.06 1018 10 16 0.00 0.00
10:57 pm 22:57 Clear 43 6.1 38 3.3 82 82 N 14 22 30.09 1019 10 16 0.00 0.00
11:57 pm 23:57 Clear 40 4.4 38 3.3 93 93 N 8 13 30.13 1020 10 16 0.00 0.00

Powered by AerisWeather